Weather History for KEKQ - January, 2013

Change the Weather History Date:

Tuesday, January 1, 2013

  Actual Average Record
Temperature  
Mean Temperature 36 °F -  
Max Temperature 39 °F 45 °F 65 °F (1965)
Min Temperature 33 °F 26 °F -8 °F (1977)
Degree Days  
Heating Degree Days 29    
Moisture  
Dew Point 37 °F    
Average Humidity 100    
Maximum Humidity 100    
Minimum Humidity 100    
Precipitation  
Precipitation 0.09 in - - ()
Sea Level Pressure  
Sea Level Pressure 30.07 in    
Wind  
Wind Speed 3 mph (NNE)    
Max Wind Speed 10 mph    
Max Gust Speed -    
Visibility 3 miles    
Events Fog , Rain    
Averages and records for this station are not official NWS values.
T = Trace of Precipitation, MM = Missing Value Source: NWS Daily Summary

Daily Weather History Graph

Daily Weather History Graph

Search for Another Location

Airport or City:

Trip Planner

Search our weather history database for the weather conditions in past years. The results will help you decide how hot, cold, wet, or windy it might be!

Date:

Astronomy

Jan. 01, 2013 Rise Set
Actual Time 6:52 AM CST 4:34 PM CST
Civil Twilight 6:23 AM CST 5:02 PM CST
Nautical Twilight 5:51 AM CST 5:35 PM CST
Astronomical Twilight 5:19 AM CST 6:06 PM CST
Moon 8:57 PM CST (1/1) 9:10 AM CST (1/1)
Length of Visible Light 10h 39m
Length of Day
9h 41m
Waning Gibbous, 83% of the Moon is Illuminated
Jan 1
Waning Gibbous
Jan 4
Last Quarter
Jan 11
New
Jan 18
First Quarter
Jan 26
Full

Hourly Weather History & Observations

Time (CST) Temp. Windchill Dew Point Humidity Pressure Visibility Wind Dir Wind Speed Gust Speed Precip Events Conditions
12:29 AM 35.6 °F 30.7 °F 35.6 °F 100% 30.07 in 1.5 mi ESE 5.8 mph - N/A Rain Light Rain
12:40 AM 35.6 °F 28.6 °F 35.6 °F 100% 30.04 in 2.5 mi SE 9.2 mph - N/A Rain Light Rain
12:47 AM 35.6 °F - 35.6 °F 100% 30.05 in 3.0 mi Calm Calm - N/A Rain Light Rain
12:56 AM 36.9 °F - 36.9 °F 100% 30.05 in 2.5 mi Calm Calm - N/A Rain Light Rain
1:23 AM 37.4 °F 33.8 °F 37.4 °F 100% 30.04 in 4.0 mi SSE 4.6 mph - 0.02 in Rain Light Rain
1:31 AM 37.4 °F 33.8 °F 37.4 °F 100% 30.04 in 4.0 mi SSE 4.6 mph - 0.02 in Rain Light Rain
1:49 AM 37.4 °F - 37.4 °F 100% 30.05 in 1.8 mi Calm Calm - 0.03 in Rain Light Rain
1:56 AM 37.9 °F - 37.9 °F 100% 30.06 in 1.2 mi Calm Calm - 0.04 in Rain Light Rain
2:09 AM 37.4 °F - 37.4 °F 100% 30.06 in 1.0 mi Calm Calm - 0.01 in Rain Light Rain
2:26 AM 37.4 °F - 37.4 °F 100% 30.06 in 1.5 mi Calm Calm - 0.02 in Rain Light Rain
2:32 AM 37.4 °F - 37.4 °F 100% 30.06 in 1.0 mi Calm Calm - 0.03 in Rain Light Rain
2:38 AM 37.4 °F - 37.4 °F 100% 30.06 in 0.8 mi Calm Calm - 0.04 in Rain Light Rain
2:47 AM 37.4 °F - 37.4 °F 100% 30.05 in 1.2 mi Calm Calm - 0.04 in Rain Light Rain
2:56 AM 37.9 °F - 37.9 °F 100% 30.05 in 1.5 mi Calm Calm - 0.05 in Rain Light Rain
3:05 AM 37.4 °F - 37.4 °F 100% 30.05 in 2.5 mi Calm Calm - 0.00 in Rain Light Rain
3:13 AM 37.4 °F - 37.4 °F 100% 30.05 in 2.5 mi Calm Calm - 0.01 in Rain Light Rain
3:59 AM 37.4 °F - 37.4 °F 100% 30.05 in 1.8 mi Calm Calm - 0.00 in Rain Light Rain
4:23 AM 37.4 °F - 37.4 °F 100% 30.04 in 1.0 mi Calm Calm - 0.03 in Rain Light Rain
4:33 AM 39.2 °F - 39.2 °F 100% 30.04 in 1.8 mi Calm Calm - 0.04 in Rain Light Rain
4:40 AM 39.2 °F - 39.2 °F 100% 30.05 in 2.5 mi Calm Calm - 0.04 in Rain Light Rain
4:56 AM 39.9 °F - 39.9 °F 100% - 4.0 mi North - - N/A Rain Light Rain
5:56 AM - - - N/A% - - North - - N/A   Unknown
6:56 AM - - - N/A% - - North - - N/A   Unknown
8:56 AM - - - N/A% - - North - - N/A   Unknown
9:56 AM - - - N/A% - - North - - N/A   Unknown
10:56 AM - - - N/A% - - North - - N/A   Unknown
11:36 AM 37.4 °F 32.8 °F 37.4 °F 100% 30.06 in 1.0 mi NNE 5.8 mph - N/A   Mist
11:45 AM 37.4 °F 33.8 °F 37.4 °F 100% 30.05 in 0.5 mi NE 4.6 mph - N/A Fog , Rain Light Rain
11:56 AM 36.9 °F - 36.9 °F 100% 30.10 in 0.8 mi Calm Calm - N/A Rain Light Rain
12:01 PM 37.4 °F - 37.4 °F 100% 30.06 in 1.2 mi Calm Calm - N/A   Overcast
12:11 PM 37.4 °F - 37.4 °F 100% 30.05 in 1.5 mi Calm Calm - N/A   Overcast
12:17 PM 37.4 °F - 37.4 °F 100% 30.04 in 1.0 mi Calm Calm - N/A   Overcast
12:26 PM 37.4 °F - 37.4 °F 100% - - North - - N/A   Unknown
12:56 PM - - - N/A% - - North - - N/A   Unknown
1:56 PM - - - N/A% - - North - - N/A   Unknown
2:15 PM 37.4 °F 33.8 °F 37.4 °F 100% 30.06 in 1.2 mi North 4.6 mph - N/A   Mist
2:26 PM 37.4 °F 32.1 °F 37.4 °F 100% 30.06 in 0.8 mi North 6.9 mph - N/A   Mist
2:34 PM 37.4 °F 32.8 °F 37.4 °F 100% 30.06 in 0.5 mi North 5.8 mph - N/A Fog Fog
2:46 PM 37.4 °F 34.9 °F 37.4 °F 100% 30.06 in 1.0 mi North 3.5 mph - N/A Rain Light Rain
2:56 PM 36.9 °F - 36.9 °F 100% 30.09 in 0.8 mi Calm Calm - N/A   Overcast
3:12 PM 37.4 °F - 37.4 °F 100% 30.07 in 1.2 mi Calm Calm - 0.00 in Rain Light Rain
3:18 PM 37.4 °F 34.9 °F 37.4 °F 100% 30.07 in 2.0 mi North 3.5 mph - 0.00 in   Overcast
3:41 PM 37.4 °F - 37.4 °F 100% 30.04 in 2.0 mi Calm Calm - 0.00 in   Overcast
3:47 PM 37.4 °F - 37.4 °F 100% 30.05 in 4.0 mi Calm Calm - 0.00 in   Overcast
3:56 PM 36.9 °F - 36.9 °F 100% 30.08 in 5.0 mi Calm Calm - 0.00 in   Overcast
4:05 PM 37.4 °F 34.9 °F 37.4 °F 100% 30.05 in 5.0 mi NNE 3.5 mph - N/A   Overcast
4:19 PM 37.4 °F - 37.4 °F 100% 30.05 in 5.0 mi Calm Calm - N/A   Overcast
4:56 PM 36.9 °F 33.1 °F 36.9 °F 100% 30.08 in 4.0 mi North 4.6 mph - N/A   Overcast
5:14 PM 37.4 °F - 37.4 °F 100% 30.05 in 4.0 mi Calm Calm - N/A   Overcast
5:29 PM 37.4 °F - 37.4 °F 100% 30.06 in 4.0 mi Calm Calm - N/A   Overcast
5:56 PM 36.9 °F 34.3 °F 36.9 °F 100% 30.07 in 6.0 mi North 3.5 mph - 0.00 in   Overcast
6:25 PM 37.4 °F 32.8 °F 37.4 °F 100% 30.07 in 7.0 mi North 5.8 mph - N/A   Overcast
6:49 PM 35.6 °F 30.7 °F 35.6 °F 100% 30.07 in 9.0 mi North 5.8 mph - N/A   Overcast
6:56 PM 36.0 °F 30.3 °F 36.0 °F 100% 30.08 in 9.0 mi North 6.9 mph - N/A   Overcast
7:12 PM 35.6 °F 30.7 °F 35.6 °F 100% 30.07 in 8.0 mi North 5.8 mph - N/A   Overcast
7:56 PM 36.0 °F 28.5 °F 36.0 °F 100% 30.09 in 6.0 mi North 10.4 mph - N/A   Overcast
8:13 PM 35.6 °F 28.6 °F 35.6 °F 100% 30.09 in 1.8 mi North 9.2 mph - 0.00 in Rain Light Rain
8:23 PM 35.6 °F 29.9 °F 35.6 °F 100% 30.09 in 1.2 mi North 6.9 mph - 0.00 in Rain Light Rain
8:35 PM 35.6 °F 28.6 °F 35.6 °F 100% 30.09 in 1.5 mi NNE 9.2 mph - 0.00 in Rain Light Rain
8:56 PM 34.0 °F 28.8 °F 34.0 °F 100% 30.10 in 1.5 mi NE 5.8 mph - 0.00 in   Overcast
9:09 PM 33.8 °F - 33.8 °F 100% 30.09 in 2.0 mi Calm Calm - N/A   Overcast
9:21 PM 33.8 °F - 33.8 °F 100% 30.10 in 3.0 mi Calm Calm - N/A   Overcast
9:56 PM 34.9 °F 30.8 °F 34.9 °F 100% 30.11 in 2.5 mi North 4.6 mph - N/A   Overcast
10:07 PM 33.8 °F 27.0 °F 33.8 °F 100% 30.12 in 1.5 mi North 8.1 mph - 0.00 in   Overcast
10:56 PM 34.0 °F 28.0 °F 34.0 °F 100% 30.12 in 1.2 mi North 6.9 mph - 0.00 in   Overcast
11:09 PM 33.8 °F 29.6 °F 33.8 °F 100% 30.12 in 1.5 mi North 4.6 mph - N/A   Overcast
11:21 PM 33.8 °F 27.0 °F 33.8 °F 100% 30.12 in 3.0 mi North 8.1 mph - N/A   Overcast
11:47 PM 33.8 °F 27.7 °F 33.8 °F 100% 30.12 in 4.0 mi North 6.9 mph - N/A   Overcast
11:56 PM 34.0 °F 27.2 °F 34.0 °F 100% 30.15 in 4.0 mi North 8.1 mph - N/A   Overcast